• In Hungary
  • List of Countries
  • For 7 days
  • Water Temperature
  • Satellite Maps
  • Weather Map
  • News
  • Weather Widgets
  • user-avatar
    Login

    Hourly Weather Miechowice

    Today, 18 December, Monday

    Time Temperature Precipitation Wind Pressure Humidity
    00:00 -1°C° 0 mm 0 mps 758 mmHg 90%
    01:00 -1°C° 0 mm 0 mps 759 mmHg 92%
    02:00 -1°C° 0 mm 0 mps 759 mmHg 92%
    03:00 -1°C° 0 mm 0 mps 759 mmHg 92%
    04:00 -1°C° 0 mm 0 mps 759 mmHg 92%
    05:00 -1°C° 0 mm 0 mps 759 mmHg 91%
    06:00 -1°C° 0 mm 0 mps 760 mmHg 91%
    07:00 -1°C° 0 mm 0 mps 760 mmHg 91%
    08:00 -1°C° 0 mm 0 mps 760 mmHg 89%
    09:00 0°C° 0 mm 0 mps 761 mmHg 87%
    10:00 0°C° 0 mm 0 mps 761 mmHg 86%
    11:00 0°C° 0 mm 0 mps 761 mmHg 84%
    12:00 +1°C° 0 mm 0 mps 761 mmHg 81%
    13:00 +1°C° 0 mm 0 mps 761 mmHg 79%
    14:00 0°C° 0 mm 0 mps 762 mmHg 82%
    15:00 0°C° 0 mm 0 mps 762 mmHg 84%
    16:00 0°C° 0 mm 1 mps 762 mmHg 86%
    17:00 0°C° 0 mm 1 mps 762 mmHg 87%
    18:00 -1°C° 0 mm 1 mps 762 mmHg 87%
    19:00 -1°C° 0 mm 1 mps 762 mmHg 88%
    20:00 -1°C° 0 mm 1 mps 763 mmHg 88%
    21:00 -1°C° 0 mm 1 mps 763 mmHg 88%
    22:00 -1°C° 0 mm 1 mps 763 mmHg 88%
    23:00 -1°C° 0 mm 1 mps 763 mmHg 88%

    Tomorrow, 19 December, Tuesday

    Time Temperature Precipitation Wind Pressure Humidity
    00:00 -1°C° 0 mm 1 mps 763 mmHg 88%
    01:00 -4°C° 0 mm 2 mps 763 mmHg 88%
    02:00 -4°C° 0 mm 2 mps 763 mmHg 88%
    03:00 -4°C° 0 mm 2 mps 763 mmHg 88%
    04:00 -4°C° 0 mm 2 mps 763 mmHg 88%
    05:00 -4°C° 0 mm 2 mps 763 mmHg 88%
    06:00 -4°C° 0 mm 2 mps 763 mmHg 88%
    07:00 -4°C° 0 mm 2 mps 763 mmHg 88%
    08:00 -4°C° 0 mm 2 mps 764 mmHg 85%
    09:00 -3°C° 0 mm 2 mps 764 mmHg 83%
    10:00 -3°C° 0 mm 2 mps 764 mmHg 80%
    11:00 -2°C° 0 mm 2 mps 764 mmHg 79%
    12:00 -2°C° 0 mm 2 mps 764 mmHg 77%
    13:00 -1°C° 0 mm 2 mps 764 mmHg 76%
    14:00 -2°C° 0 mm 2 mps 764 mmHg 78%
    15:00 -2°C° 0 mm 2 mps 764 mmHg 81%
    16:00 -3°C° 0 mm 2 mps 764 mmHg 84%
    17:00 -3°C° 0 mm 2 mps 764 mmHg 85%
    18:00 -3°C° 0 mm 2 mps 764 mmHg 87%
    19:00 -3°C° 0 mm 2 mps 764 mmHg 88%
    20:00 -1°C° 0 mm 1 mps 764 mmHg 89%
    21:00 -1°C° 0 mm 1 mps 764 mmHg 90%
    22:00 -1°C° 0 mm 1 mps 764 mmHg 91%
    23:00 -1°C° 0 mm 1 mps 764 mmHg 91%

    Day after tomorrow, 20 December, Wednesday

    Time Temperature Precipitation Wind Pressure Humidity
    00:00 -1°C° 0 mm 1 mps 764 mmHg 91%
    01:00 -1°C° 0 mm 1 mps 764 mmHg 91%
    02:00 -1°C° 0 mm 1 mps 764 mmHg 91%
    03:00 -1°C° 0 mm 1 mps 764 mmHg 91%
    04:00 -1°C° 0 mm 1 mps 764 mmHg 91%
    05:00 -1°C° 0 mm 1 mps 764 mmHg 92%
    06:00 -1°C° 0 mm 1 mps 764 mmHg 92%
    07:00 -1°C° 0 mm 1 mps 764 mmHg 92%
    08:00 -1°C° 0 mm 1 mps 764 mmHg 91%
    09:00 -2°C° 0 mm 2 mps 764 mmHg 89%
    10:00 -2°C° 0 mm 2 mps 764 mmHg 88%
    11:00 -2°C° 0 mm 2 mps 764 mmHg 87%
    12:00 -1°C° 0 mm 2 mps 764 mmHg 86%
    13:00 -1°C° 0 mm 2 mps 764 mmHg 84%
    14:00 -1°C° 0 mm 2 mps 764 mmHg 86%
    15:00 -2°C° 0 mm 2 mps 764 mmHg 89%
    16:00 -2°C° 0 mm 2 mps 764 mmHg 91%
    17:00 -2°C° 0 mm 2 mps 764 mmHg 91%
    18:00 0°C° 0 mm 1 mps 764 mmHg 91%
    19:00 0°C° 0 mm 1 mps 764 mmHg 92%
    20:00 -1°C° 0 mm 1 mps 764 mmHg 92%
    21:00 -1°C° 0 mm 1 mps 764 mmHg 92%
    22:00 -1°C° 0 mm 1 mps 764 mmHg 93%
    23:00 -1°C° 0 mm 1 mps 764 mmHg 93%

    21 December, Thursday

    Time Temperature Precipitation Wind Pressure Humidity
    00:00 -1°C° 0 mm 1 mps 764 mmHg 93%
    01:00 -2°C° 0 mm 1 mps 764 mmHg 94%
    02:00 -4°C° 0 mm 2 mps 763 mmHg 94%
    03:00 -4°C° 0 mm 2 mps 763 mmHg 94%
    04:00 -4°C° 0 mm 2 mps 762 mmHg 95%
    05:00 -4°C° 0 mm 2 mps 762 mmHg 94%
    06:00 -5°C° 0 mm 3 mps 761 mmHg 94%
    07:00 -5°C° 0 mm 3 mps 761 mmHg 94%
    08:00 -4°C° 0.2 mm 3 mps 760 mmHg 93%
    09:00 -3°C° 0.2 mm 4 mps 760 mmHg 92%
    10:00 -3°C° 0.2 mm 4 mps 759 mmHg 91%
    11:00 -2°C° 0.6 mm 5 mps 758 mmHg 92%
    12:00 -2°C° 0.6 mm 5 mps 758 mmHg 92%
    13:00 -2°C° 0.6 mm 5 mps 757 mmHg 93%
    14:00 -1°C° 0.1 mm 5 mps 757 mmHg 94%
    15:00 -1°C° 0.1 mm 4 mps 756 mmHg 94%
    16:00 -1°C° 0.1 mm 4 mps 756 mmHg 95%
    17:00 -1°C° 0.1 mm 4 mps 756 mmHg 94%
    18:00 0°C° 0.1 mm 5 mps 756 mmHg 94%
    19:00 0°C° 0.1 mm 5 mps 756 mmHg 94%
    20:00 0°C° 0 mm 5 mps 756 mmHg 94%
    21:00 0°C° 0 mm 5 mps 757 mmHg 93%
    22:00 -1°C° 0 mm 5 mps 757 mmHg 93%
    23:00 0°C° 0 mm 5 mps 757 mmHg 93%

    22 December, Friday

    Time Temperature Precipitation Wind Pressure Humidity
    00:00 0°C° 0 mm 5 mps 757 mmHg 94%
    01:00 -1°C° 0 mm 6 mps 757 mmHg 94%
    02:00 -1°C° 0 mm 6 mps 756 mmHg 92%
    03:00 -1°C° 0 mm 6 mps 756 mmHg 91%
    04:00 -1°C° 0 mm 6 mps 756 mmHg 89%
    05:00 -1°C° 0 mm 7 mps 756 mmHg 88%
    06:00 -1°C° 0 mm 7 mps 756 mmHg 87%
    07:00 -1°C° 0 mm 7 mps 756 mmHg 87%
    08:00 -1°C° 0 mm 7 mps 756 mmHg 86%
    09:00 -1°C° 0 mm 7 mps 756 mmHg 86%
    10:00 -1°C° 0 mm 7 mps 756 mmHg 85%
    11:00 -1°C° 0 mm 7 mps 756 mmHg 85%
    12:00 -1°C° 0 mm 7 mps 756 mmHg 85%
    13:00 +1°C° 0 mm 6 mps 756 mmHg 84%
    14:00 +1°C° 0 mm 6 mps 757 mmHg 84%
    15:00 -1°C° 0 mm 6 mps 757 mmHg 85%
    16:00 -1°C° 0 mm 6 mps 757 mmHg 85%
    17:00 -1°C° 0 mm 6 mps 757 mmHg 85%
    18:00 -2°C° 0 mm 6 mps 757 mmHg 86%
    19:00 -2°C° 0 mm 6 mps 757 mmHg 86%
    20:00 -2°C° 0 mm 6 mps 757 mmHg 87%
    21:00 -2°C° 0 mm 6 mps 756 mmHg 88%
    22:00 -2°C° 0 mm 6 mps 756 mmHg 89%
    23:00 -2°C° 0.1 mm 7 mps 755 mmHg 88%

    23 December, Saturday

    Time Temperature Precipitation Wind Pressure Humidity
    00:00 -1°C° 0.1 mm 8 mps 754 mmHg 88%
    01:00 -1°C° 0.1 mm 9 mps 752 mmHg 87%
    02:00 -1°C° 0.8 mm 9 mps 752 mmHg 86%
    03:00 -1°C° 0.8 mm 9 mps 752 mmHg 84%
    04:00 -1°C° 0.8 mm 9 mps 751 mmHg 82%
    05:00 -1°C° 0 mm 8 mps 752 mmHg 80%
    06:00 -2°C° 0 mm 8 mps 753 mmHg 78%
    07:00 -2°C° 0 mm 8 mps 754 mmHg 76%
    08:00 -2°C° 0 mm 7 mps 755 mmHg 76%
    09:00 -2°C° 0 mm 7 mps 756 mmHg 76%
    10:00 -2°C° 0 mm 7 mps 757 mmHg 76%
    11:00 -2°C° 0 mm 6 mps 758 mmHg 75%
    12:00 -2°C° 0 mm 6 mps 758 mmHg 75%
    13:00 -2°C° 0 mm 6 mps 759 mmHg 75%
    14:00 -1°C° 0 mm 5 mps 759 mmHg 77%
    15:00 -2°C° 0 mm 4 mps 759 mmHg 80%
    16:00 -3°C° 0 mm 4 mps 760 mmHg 83%
    17:00 -2°C° 0 mm 3 mps 760 mmHg 84%
    18:00 -2°C° 0 mm 3 mps 760 mmHg 85%
    19:00 -4°C° 0 mm 3 mps 761 mmHg 86%
    20:00 -2°C° 0 mm 3 mps 760 mmHg 84%
    21:00 -2°C° 0 mm 3 mps 760 mmHg 83%
    22:00 -2°C° 0 mm 3 mps 760 mmHg 81%
    23:00 -2°C° 0 mm 3 mps 760 mmHg 79%
    Show more